Regional Weather Roundup
Issued by NWS

Home | Current Version | Previous Version | Text Only | Print | Product List | Glossary Off
Versions: 1 2 3 4 5 6 7 8 9 10 11 12 13 14 15 16 17 18 19 20 21 22 23 24 25 26 27 28 29 30 31 32 33 34 35 36 37 38 39 40 41 42 43 44 45 46 47 48 49 50

000
ASUS43 KIND 250709
RWRIN

WEATHER ROUNDUP FOR INDIANA
NATIONAL WEATHER SERVICE INDIANAPOLIS IN
300 AM EDT FRI JUL 25 2014

NOTE: "FAIR" INDICATES FEW OR NO CLOUDS BELOW 12,000 FEET WITH NO
SIGNIFICANT WEATHER AND/OR OBSTRUCTIONS TO VISIBILITY.

* - STATION DOES NOT REPORT WEATHER SUCH AS PRECIPITATION OR FOG.

+ - STATION NOT QUALITY CONTROLLED BY THE NATIONAL WEATHER SERVICE.
    USE DATA WITH CAUTION...ESPECIALLY DEWPOINT AND RELATIVE
    HUMIDITY OBSERVATIONS.

INZ001>003-010>013-019-020-250800-
NORTHWEST INDIANA

CITY           SKY/WX    TMP DP  RH WIND       PRES   REMARKS
GARY /AIRPORT/ CLEAR     54  52  94 CALM      30.07R
KNOX *+        CLEAR     50  48  92 SE3       30.05F
LA PORTE +     CLEAR     48  48 100 CALM      30.06F
MICHIGAN CITY+ CLEAR     50  50 100 CALM      30.05F FOG
MONTICELLO +   CLEAR     55  53  91 CALM      30.06R
RENSSELAER +   CLEAR     52  52 100 CALM      30.07S
VALPARAISO     CLEAR     51  48  89 CALM      30.06F

$$

LMZ046-743>745-250800-
SOUTHERN LAKE MICHIGAN

STATION/POSITION TIME  TEMP WIND        PRES
                       AIR  DIR/SP/G
                 (UTC) (F)  (DEG/KT/KT) (MB)
MICHIGAN CITY    0700   58  130/  7/  8   N/A

$$

INZ004-005-014>016-021>024-250800-
NORTH CENTRAL INDIANA

CITY           SKY/WX    TMP DP  RH WIND       PRES   REMARKS
GOSHEN         CLEAR     55  52  89 CALM      30.06S
LOGANSPORT +   CLEAR     52  50  93 CALM      30.08R
PERU/GRISSOM   CLEAR     56  56 100 CALM      30.06F
ROCHESTER +    CLEAR     55  52  88 CALM      30.07R
SOUTH BEND     FAIR      58  51  78 SE3       30.06F
WARSAW +       CLEAR     54  52  94 CALM      30.07R

$$

INZ006>009-017-018-025>027-250800-
NORTHEAST INDIANA

CITY           SKY/WX    TMP DP  RH WIND       PRES   REMARKS
ANGOLA *+      CLEAR     54  54 100 CALM      30.06F
AUBURN +       CLEAR     54  50  87 CALM      30.06F
FORT WAYNE     PTCLDY    57  52  83 SW3       30.06F
HUNTINGTON +   CLEAR     54  52  94 CALM      30.05F

$$

INZ028-029-035-036-043>045-051>053-250800-
WEST CENTRAL INDIANA

CITY           SKY/WX    TMP DP  RH WIND       PRES   REMARKS
GREENCASTLE +  CLEAR     54  52  94 CALM      30.08F
LAFAYETTE      CLEAR     54  53  97 CALM      30.07S
TERRE HAUTE    CLEAR     54  52  93 CALM      30.06F

$$

INZ030>032-037>040-046>048-054>057-064-065-250800-
CENTRAL INDIANA

CITY           SKY/WX    TMP DP  RH WIND       PRES   REMARKS
CP ATTERBURY + CLEAR     54  52  94 CALM      30.08R
INDIANAPOLIS   CLEAR     59  53  80 CALM      30.06S
-EAGLE CREEK   CLEAR     59  56  89 CALM      30.06S
KOKOMO *+      CLEAR     54  50  87 CALM      30.07S
MARION +       CLEAR     53  52  96 CALM      30.07F
MT COMFORT *+  CLEAR     54 N/A N/A CALM      30.08S
SHELBYVILLE    CLEAR     57  53  86 E6        30.06F
ZIONSVILLE +   CLEAR     55  52  89 CALM      30.08S

$$

INZ033-034-041-042-049-050-058-059-250800-
EAST CENTRAL INDIANA

CITY           SKY/WX    TMP DP  RH WIND       PRES   REMARKS
MUNCIE         PTCLDY    58  51  78 S3        30.07S

$$

INZ060-061-067>069-081>083-085>088-250800-
SOUTHWEST INDIANA

CITY           SKY/WX    TMP DP  RH WIND       PRES   REMARKS
EVANSVILLE     CLEAR     63  58  83 N3        30.05R
HUNTINGBURG *+ CLEAR     57  54  88 CALM      30.06R
WASHINGTON +   FOG       56  56 100 CALM      30.06R VSB 1

$$

INZ062-063-066-070>080-084-089>092-250800-
SOUTH CENTRAL AND SOUTHEAST INDIANA

CITY           SKY/WX    TMP DP  RH WIND       PRES   REMARKS
BLOOMINGTON    CLEAR     55  53  93 CALM      30.08R

$$



USA.gov is the U.S. government's official web portal to all federal, state and local government web resources and services.